Location: Dana
(41.8364°N, 106.7042°W)
Time: 14:46:41
(UTC+00:00)

Transit 2A - Pass Details

Date: 17 May 2026
Orbit: 595 x 948 km, 66.7° (Epoch: 8 June)

Event Time Altitude Azimuth Distance (km) Brightness Sun altitude
Rises 06:07:59 0° 337° (NNW) 3,198 10.5 -27.5°
Reaches altitude 10° 06:10:52 10° 351° (N) 2,204 9.4 -27.6°
Maximum altitude 06:14:55 24° 46° (NE) 1,376 7.6 -27.8°
Enters shadow 06:15:49 23° 64° (ENE) 1,410 7.5 -27.8°
Drops below altitude 10° 06:18:41 10° 101° (E) 2,036 - -28.0°
Sets 06:21:14 0° 116° (ESE) 2,898 - -28.0°
